This is the latest recevied weather packets stored in our database for station/object KE4LOJ. If no packets are shown the sender has not sent any weather packets the latest 10 day(s).
| Time | Temp. | Humidity | Pressure | Rain* | Wind** | Luminosity | Snow |
|---|---|---|---|---|---|---|---|
| 1777491703 | 31.67° C | 46% | 1013.9 hPa | 0 mm | - | 703 W/m² | - |
| 1777491401 | 31.11° C | 46% | 1014 hPa | 0 mm | - | 407 W/m² | - |
| 1777491098 | 30.56° C | 48% | 1013.9 hPa | 0 mm | - | 789 W/m² | - |
| 1777490793 | 32.22° C | 47% | 1014.2 hPa | 0 mm | - | 757 W/m² | - |
| 1777490490 | 31.67° C | 47% | 1014.4 hPa | 0 mm | - | 761 W/m² | - |
| 1777490186 | 31.11° C | 47% | 1014.4 hPa | 0 mm | - | 772 W/m² | - |
| 1777489884 | 31.11° C | 47% | 1014.5 hPa | 0 mm | - | 789 W/m² | - |
| 1777489582 | 30.56° C | 48% | 1014.7 hPa | 0 mm | - | 770 W/m² | - |
| 1777489278 | 31.11° C | 49% | 1014.7 hPa | 0 mm | - | 719 W/m² | - |
| 1777488975 | 30.56° C | 49% | 1014.8 hPa | 0 mm | - | 785 W/m² | - |
| 1777488672 | 30.56° C | 50% | 1014.9 hPa | 0 mm | - | 304 W/m² | - |
| 1777488370 | 30° C | 51% | 1015 hPa | 0 mm | - | 301 W/m² | - |
| 1777488068 | 30.56° C | 49% | 1015 hPa | 0 mm | - | 714 W/m² | - |
| 1777487765 | 31.11° C | 47% | 1015.3 hPa | 0 mm | - | 245 W/m² | - |
| 1777487463 | 30.56° C | 47% | 1015.3 hPa | 0 mm | - | 900 W/m² | - |
| 1777487160 | 31.11° C | 50% | 1015.3 hPa | 0 mm | - | 677 W/m² | - |
| 1777486856 | 30.56° C | 49% | 1015.5 hPa | 0 mm | - | 702 W/m² | - |
| 1777486553 | 30° C | 50% | 1015.5 hPa | 0 mm | - | 758 W/m² | - |
| 1777486251 | 30° C | 51% | 1015.7 hPa | 0 mm | - | 924 W/m² | - |
| 1777485948 | 30.56° C | 50% | 1015.8 hPa | 0 mm | - | 879 W/m² | - |
| 1777485644 | 31.11° C | 50% | 1015.7 hPa | 0 mm | - | 901 W/m² | - |
| 1777485339 | 31.11° C | 48% | 1015.8 hPa | 0 mm | - | 882 W/m² | - |
| 1777485036 | 30° C | 52% | 1015.8 hPa | 0 mm | - | 789 W/m² | - |
| 1777484733 | 29.44° C | 54% | 1015.9 hPa | 0 mm | - | 726 W/m² | - |
| 1777484429 | 30° C | 54% | 1015.9 hPa | 0 mm | - | 730 W/m² | - |
* Rain latest hour (hover to see other rain measurements)
** Current wind speed in m/s (hover to see current wind gust speed)